H1 CPF 2 NER 2022 5 8 9 128 01 glonass129 H2 1106402 9129 37868 2022 5 8 0 0 0 2022 5 11 23 45 0 900 1 1 0 0 0 1 H9 10 0 59707 0.00000 0 -10436254.872 -19222560.446 -13117832.521 10 0 59707 900.00000 0 -10908349.671 -20604033.137 -10359290.108 10 0 59707 1800.00000 0 -11372318.315 -21612018.142 -7399579.437 10 0 59707 2700.00000 0 -11771531.825 -22236343.811 -4296275.560 10 0 59707 3600.00000 0 -12049882.634 -22480069.137 -1109654.864 10 0 59707 4500.00000 0 -12154345.173 -22359179.268 2098476.886 10 0 59707 5400.00000 0 -12037412.547 -21901758.291 5265979.712 10 0 59707 6300.00000 0 -11659307.218 -21146676.481 8331574.813 10 0 59707 7200.00000 0 -10989873.580 -20141848.984 11236017.534 10 0 59707 8100.00000 0 -10010073.949 -18942140.175 13923226.267 10 0 59707 9000.00000 0 -8713026.208 -17607001.948 16341346.921 10 0 59707 9900.00000 0 -7104540.435 -16197944.501 18443734.001 10 0 59707 10800.00000 0 -5203132.371 -14775944.420 20189831.354 10 0 59707 11700.00000 0 -3039512.831 -13398896.801 21545937.500 10 0 59707 12600.00000 0 -655573.378 -12119215.961 22485842.553 10 0 59707 13500.00000 0 1897091.260 -10981682.893 22991325.993 10 0 59707 14400.00000 0 4559065.006 -10021627.418 23052506.705 10 0 59707 15300.00000 0 7265321.119 -9263519.506 22668038.994 10 0 59707 16200.00000 0 9947673.089 -8720027.671 21845150.587 10 0 59707 17100.00000 0 12537367.186 -8391583.579 20599521.030 10 0 59707 18000.00000 0 14967711.725 -8266471.635 18955001.345 10 0 59707 18900.00000 0 17176636.167 -8321440.936 16943178.382 10 0 59707 19800.00000 0 19109075.164 -8522815.543 14602789.982 10 0 59707 20700.00000 0 20719078.905 -8828058.317 11978999.881 10 0 59707 21600.00000 0 21971561.626 -9187724.319 9122544.090 10 0 59707 22500.00000 0 22843614.273 -9547722.936 6088763.275 10 0 59707 23400.00000 0 23325324.829 -9851794.167 2936538.534 10 0 59707 24300.00000 0 23420070.043 -10044094.560 -272849.659 10 0 59707 25200.00000 0 23144264.393 -10071782.690 -3476917.266 10 0 59707 26100.00000 0 22526575.086 -9887493.182 -6613203.396 10 0 59707 27000.00000 0 21606634.919 -9451592.247 -9620502.825 10 0 59707 27900.00000 0 20433306.607 -8734116.366 -12440078.703 10 0 59707 28800.00000 0 19062571.831 -7716309.039 -15016829.721 10 0 59707 29700.00000 0 17555134.805 -6391687.496 -17300386.915 10 0 59707 30600.00000 0 15973842.739 -4766591.445 -19246116.728 10 0 59707 31500.00000 0 14381033.680 -2860188.432 -20816008.889 10 0 59707 32400.00000 0 12835925.311 -703933.855 -21979430.464 10 0 59707 33300.00000 0 11392156.403 1659492.719 -22713730.410 10 0 59707 34200.00000 0 10095585.771 4177730.489 -23004682.391 10 0 59707 35100.00000 0 8982442.085 6790694.725 -22846757.299 10 0 59707 36000.00000 0 8077902.420 9432865.785 -22243220.646 10 0 59707 36900.00000 0 7395158.640 12035813.133 -21206053.840 10 0 59707 37800.00000 0 6935009.417 14530847.964 -19755702.009 10 0 59707 38700.00000 0 6685992.978 16851692.917 -17920654.689 10 0 59707 39600.00000 0 6625052.479 18937056.980 -15736869.046 10 0 59707 40500.00000 0 6718703.175 20733008.238 -13247048.408 10 0 59707 41400.00000 0 6924649.392 22195046.169 -10499791.606 10 0 59707 42300.00000 0 7193780.517 23289788.177 -7548631.176 10 0 59707 43200.00000 0 7472459.569 23996201.880 -4450980.286 10 0 59707 44100.00000 0 7705006.096 24306333.959 -1267009.824 10 0 59707 45000.00000 0 7836267.569 24225507.689 1941521.814 10 0 59707 45900.00000 0 7814170.368 23771983.596 5112463.270 10 0 59707 46800.00000 0 7592142.998 22976099.948 8184466.115 10 0 59707 47700.00000 0 7131310.083 21878931.126 11098159.396 10 0 59707 48600.00000 0 6402365.805 20530521.583 13797281.169 10 0 59707 49500.00000 0 5387049.084 18987769.966 16229746.559 10 0 59707 50400.00000 0 4079159.571 17312051.931 18348633.340 10 0 59707 51300.00000 0 2485072.438 15566680.141 20113067.958 10 0 59707 52200.00000 0 623730.454 13814306.056 21488996.834 10 0 59707 53100.00000 0 -1473886.920 12114370.037 22449829.837 10 0 59707 54000.00000 0 -3765796.715 10520703.870 22976945.083 10 0 59707 54900.00000 0 -6200506.966 9079383.485 23060046.370 10 0 59707 55800.00000 0 -8718913.038 7826919.454 22697366.830 10 0 59707 56700.00000 0 -11256519.972 6788859.265 21895714.728 10 0 59707 57600.00000 0 -13745901.726 5978858.804 20670359.667 10 0 59707 58500.00000 0 -16119298.036 5398261.756 19044759.977 10 0 59707 59400.00000 0 -18311243.529 5036205.015 17050134.583 10 0 59707 60300.00000 0 -20261121.590 4870246.808 14724885.339 10 0 59707 61200.00000 0 -21915537.575 4867492.710 12113878.616 10 0 59707 62100.00000 0 -23230412.560 4986173.826 9267597.743 10 0 59707 63000.00000 0 -24172709.393 5177612.165 6241180.660 10 0 59707 63900.00000 0 -24721717.346 5388491.411 3093360.065 10 0 59707 64800.00000 0 -24869839.572 5563337.564 -114674.312 10 0 59707 65700.00000 0 -24622848.107 5647104.232 -3320469.360 10 0 59707 66600.00000 0 -23999593.566 5587751.965 -6461534.333 10 0 59707 67500.00000 0 -23031179.970 5338710.472 -9476573.705 10 0 59707 68400.00000 0 -21759638.219 4861116.868 -12306701.460 10 0 59707 69300.00000 0 -20236153.559 4125732.246 -14896611.109 10 0 59707 70200.00000 0 -18518921.931 3114452.385 -17195676.535 10 0 59707 71100.00000 0 -16670726.326 1821345.733 -19158960.199 10 0 59707 72000.00000 0 -14756336.587 253172.308 -20748107.158 10 0 59707 72900.00000 0 -12839843.720 -1570640.444 -21932106.098 10 0 59707 73800.00000 0 -10982042.457 -3618565.196 -22687901.596 10 0 59707 74700.00000 0 -9237973.547 -5848062.449 -23000845.128 10 0 59707 75600.00000 0 -7654729.963 -8207142.820 -22864976.144 10 0 59707 76500.00000 0 -6269619.415 -10636337.901 -22283128.159 10 0 59707 77400.00000 0 -5108759.929 -13070996.236 -21266858.657 10 0 59707 78300.00000 0 -4186166.176 -15443807.365 -19836205.348 10 0 59707 79200.00000 0 -3503362.991 -17687447.407 -18019274.866 10 0 59707 80100.00000 0 -3049539.805 -19737234.805 -15851673.443 10 0 59707 81000.00000 0 -2802236.533 -21533684.962 -13375792.201 10 0 59707 81900.00000 0 -2728528.953 -23024857.184 -10639962.423 10 0 59707 82800.00000 0 -2786660.643 -24168396.546 -7697498.729 10 0 59707 83700.00000 0 -2928049.915 -24933186.706 -4605649.978 10 0 59707 84600.00000 0 -3099584.875 -25300546.366 -1424479.216 10 0 59707 85500.00000 0 -3246108.154 -25264921.519 1784304.771 10 0 59708 0.00000 0 -3312985.532 -24834046.988 4958541.119 10 0 59708 900.00000 0 -3248649.841 -24028572.546 8036814.419 10 0 59708 1800.00000 0 -3007013.233 -22881172.019 10959629.127 10 0 59708 2700.00000 0 -2549647.077 -21435173.484 13670544.880 10 0 59708 3600.00000 0 -1847638.736 -19742769.270 16117247.840 10 0 59708 4500.00000 0 -883048.353 -17862880.639 18252540.717 10 0 59708 5400.00000 0 350094.631 -15858765.730 20035234.039 10 0 59708 6300.00000 0 1845296.578 -13795469.228 21430923.388 10 0 59708 7200.00000 0 3583627.226 -11737218.234 22412639.398 10 0 59708 8100.00000 0 5534269.526 -9744870.519 22961359.566 10 0 59708 9000.00000 0 7655570.522 -7873518.967 23066373.074 10 0 59708 9900.00000 0 9896551.757 -6170349.696 22725492.096 10 0 59708 10800.00000 0 12198819.214 -4672841.063 21945105.394 10 0 59708 11700.00000 0 14498796.434 -3407377.166 20740072.363 10 0 59708 12600.00000 0 16730190.932 -2388332.990 19133458.144 10 0 59708 13500.00000 0 18826594.044 -1617669.314 17156113.007 10 0 59708 14400.00000 0 20724108.153 -1085054.964 14846101.835 10 0 59708 15300.00000 0 22363893.086 -768512.404 12247992.366 10 0 59708 16200.00000 0 23694525.931 -635560.958 9412013.657 10 0 59708 17100.00000 0 24674075.187 -644810.992 6393099.005 10 0 59708 18000.00000 0 25271801.101 -747943.066 3249830.440 10 0 59708 18900.00000 0 25469408.999 -891989.206 43304.367 10 0 59708 19800.00000 0 25261800.644 -1021819.853 -3164059.865 10 0 59708 20700.00000 0 24657289.594 -1082730.549 -6309744.654 10 0 59708 21600.00000 0 23677269.263 -1023017.261 -9332367.217 10 0 59708 22500.00000 0 22355345.816 -796429.060 -12172895.370 10 0 59708 23400.00000 0 20735971.262 -364391.606 -14775820.299 10 0 59708 24300.00000 0 18872633.836 302095.703 -17090261.392 10 0 59708 25200.00000 0 16825682.101 1220972.118 -19070979.541 10 0 59708 26100.00000 0 14659875.212 2398103.039 -20679277.290 10 0 59708 27000.00000 0 12441763.666 3826787.628 -21883766.854 10 0 59708 27900.00000 0 10237012.025 5487808.959 -22660990.046 10 0 59708 28800.00000 0 8107777.521 7350025.507 -22995877.482 10 0 59708 29700.00000 0 6110255.567 9371479.414 -22882038.165 10 0 59708 30600.00000 0 4292495.647 11500974.714 -22321874.229 10 0 59708 31500.00000 0 2692579.057 13680058.450 -21326519.460 10 0 59708 32400.00000 0 1337233.933 15845320.673 -19915603.937 10 0 59708 33300.00000 0 240943.910 17930915.819 -18116850.737 10 0 59708 34200.00000 0 -594414.481 19871198.869 -15965514.068 10 0 59708 35100.00000 0 -1179393.446 21603365.224 -13503671.317 10 0 59708 36000.00000 0 -1536265.282 23069983.544 -10779384.261 10 0 59708 36900.00000 0 -1697816.546 24221315.742 -7845747.272 10 0 59708 37800.00000 0 -1705698.973 25017327.823 -4759842.213 10 0 59708 38700.00000 0 -1608409.368 25429308.751 -1581621.334 10 0 59708 39600.00000 0 -1458985.797 25441031.261 1627259.370 10 0 59708 40500.00000 0 -1312518.754 25049408.120 4804633.389 10 0 59708 41400.00000 0 -1223583.000 24264618.447 7889020.522 10 0 59708 42300.00000 0 -1243698.405 23109700.813 10820804.511 10 0 59708 43200.00000 0 -1418926.227 21619631.776 13543369.749 10 0 59708 44100.00000 0 -1787701.086 19839929.417 16004176.430 10 0 59708 45000.00000 0 -2378988.577 17824840.627 18155754.988 10 0 59708 45900.00000 0 -3210844.834 15635187.400 19956602.564 10 0 59708 46800.00000 0 -4289437.634 13335960.751 21371966.148 10 0 59708 47700.00000 0 -5608569.711 10993760.743 22374499.068 10 0 59708 48600.00000 0 -7149724.624 8674186.863 22944779.762 10 0 59708 49500.00000 0 -8882634.401 6439284.699 23071683.953 10 0 59708 50400.00000 0 -10766347.109 4345152.614 22752603.549 10 0 59708 51300.00000 0 -12750752.309 2439805.552 21993507.990 10 0 59708 52200.00000 0 -14778503.773 761382.985 20808846.089 10 0 59708 53100.00000 0 -16787262.297 -663225.593 19221288.842 10 0 59708 54000.00000 0 -18712168.080 -1819280.912 17261316.335 10 0 59708 54900.00000 0 -20488442.005 -2704582.181 14966654.395 10 0 59708 55800.00000 0 -22054008.955 -3329326.342 12381569.549 10 0 59708 56700.00000 0 -23352034.477 -3715443.121 9556033.591 10 0 59708 57600.00000 0 -24333268.572 -3895432.452 6544771.855 10 0 59708 58500.00000 0 -24958097.397 -3910751.969 3406212.174 10 0 59708 59400.00000 0 -25198215.067 -3809821.645 201353.965 10 0 59708 60300.00000 0 -25037842.934 -3645729.534 -3007420.872 10 0 59708 61200.00000 0 -24474442.461 -3473735.938 -6157571.548 10 0 59708 62100.00000 0 -23518889.044 -3348682.766 -9187631.593 10 0 59708 63000.00000 0 -22195097.134 -3322419.600 -12038426.074 10 0 59708 63900.00000 0 -20539110.643 -3441357.850 -14654247.042 10 0 59708 64800.00000 0 -18597695.842 -3744259.305 -16983962.250 10 0 59708 65700.00000 0 -16426495.529 -4260355.558 -18982033.477 10 0 59708 66600.00000 0 -14087822.501 -5007880.524 -20609422.689 10 0 59708 67500.00000 0 -11648185.880 -5993080.409 -21834366.959 10 0 59708 68400.00000 0 -9175655.354 -7209744.752 -22633006.021 10 0 59708 69300.00000 0 -6737175.285 -8639279.428 -22989849.649 10 0 59708 70200.00000 0 -4395942.374 -10251319.039 -22898075.778 10 0 59708 71100.00000 0 -2208957.470 -12004852.794 -22359653.974 10 0 59708 72000.00000 0 -224854.262 -13849815.836 -21385292.638 10 0 59708 72900.00000 0 1517904.835 -15729078.148 -19994212.138 10 0 59708 73800.00000 0 2992391.409 -17580746.336 -18213749.601 10 0 59708 74700.00000 0 4184077.304 -19340680.448 -16078804.588 10 0 59708 75600.00000 0 5091170.861 -20945119.231 -13631137.978 10 0 59708 76500.00000 0 5724412.160 -22333303.079 -10918539.198 10 0 59708 77400.00000 0 6106339.259 -23449984.405 -7993879.501 10 0 59708 78300.00000 0 6270059.685 -24247720.507 -4914070.928 10 0 59708 79200.00000 0 6257581.996 -24688853.648 -1738952.182 10 0 59708 80100.00000 0 6117780.322 -24747096.596 1469876.155 10 0 59708 81000.00000 0 5904079.679 -24408658.879 4650244.126 10 0 59708 81900.00000 0 5671960.898 -23672868.380 7740609.614 10 0 59708 82800.00000 0 5476390.790 -22552264.073 10681237.480 10 0 59708 83700.00000 0 5369285.630 -21072157.605 13415338.778 10 0 59708 84600.00000 0 5397113.970 -19269683.160 15890149.416 10 0 59708 85500.00000 0 5598738.440 -17192375.847 18057928.983 10 0 59709 0.00000 0 6003585.889 -14896337.923 19876862.243 10 0 59709 900.00000 0 6630221.764 -12444067.006 21311848.795 10 0 59709 1800.00000 0 7485387.079 -9902038.219 22335165.054 10 0 59709 2700.00000 0 8563538.807 -7338134.446 22926990.705 10 0 59709 3600.00000 0 9846912.931 -4819031.899 23075788.039 10 0 59709 4500.00000 0 11306108.947 -2407645.743 22778528.498 10 0 59709 5400.00000 0 12901173.338 -160739.412 22040761.805 10 0 59709 6300.00000 0 14583139.356 1873205.326 20876525.611 10 0 59709 7200.00000 0 16295961.626 3655770.598 19308096.054 10 0 59709 8100.00000 0 17978767.723 5159963.820 17365582.167 10 0 59709 9000.00000 0 19568335.300 6371101.818 15086369.701 10 0 59709 9900.00000 0 21001693.220 7287180.284 12514422.774 10 0 59709 10800.00000 0 22218739.169 7918712.279 9699454.509 10 0 59709 11700.00000 0 23164764.431 8288041.330 6695980.633 10 0 59709 12600.00000 0 23792779.290 8428156.670 3562272.879 10 0 59709 13500.00000 0 24065539.921 8381059.451 359231.527 10 0 59709 14400.00000 0 23957189.330 8195748.216 -2850801.348 10 0 59709 15300.00000 0 23454440.612 7925908.641 -6005264.293 10 0 59709 16200.00000 0 22557249.825 7627405.964 -9042609.766 10 0 59709 17100.00000 0 21278947.411 7355687.585 -11903522.680 10 0 59709 18000.00000 0 19645820.270 7163207.808 -14532098.482 10 0 59709 18900.00000 0 17696160.352 7096986.189 -16876955.695 10 0 59709 19800.00000 0 15478818.727 7196405.538 -18892259.227 10 0 59709 20700.00000 0 13051325.709 7491345.315 -20538632.544 10 0 59709 21600.00000 0 10477656.307 8000731.723 -21783939.492 10 0 59709 22500.00000 0 7825735.642 8731567.619 -22603919.454 10 0 59709 23400.00000 0 5164790.077 9678484.461 -22982662.884 10 0 59709 24300.00000 0 2562656.131 10823835.775 -22912917.921 10 0 59709 25200.00000 0 83160.705 12138328.175 -22396222.512 10 0 59709 26100.00000 0 -2216317.273 13582162.693 -21442860.249 10 0 59709 27000.00000 0 -4287002.015 15106637.323 -20071641.932 10 0 59709 27900.00000 0 -6090503.625 16656142.063 -18309518.427 10 0 59709 28800.00000 0 -7600155.463 18170461.082 -16191033.872 10 0 59709 29700.00000 0 -8801852.496 19587283.962 -13757631.418 10 0 59709 30600.00000 0 -9694358.476 20844819.421 -11056826.508 10 0 59709 31500.00000 0 -10289072.286 21884401.024 -8141265.278 10 0 59709 32400.00000 0 -10609266.767 22652975.273 -5067687.629 10 0 59709 33300.00000 0 -10688835.360 23105367.935 -1895816.139 10 0 59709 34200.00000 0 -10570602.256 23206234.297 1312806.812 10 0 59709 35100.00000 0 -10304269.667 22931612.770 4496010.761 10 0 59709 36000.00000 0 -9944090.417 22270018.210 7592194.724 10 0 59709 36900.00000 0 -9546364.810 21223030.731 10541507.762 10 0 59709 37800.00000 0 -9166867.401 19805356.862 13286990.682 10 0 59709 38700.00000 0 -8858311.434 18044361.605 15775658.134 10 0 59709 39600.00000 0 -8667956.543 15979091.591 17959501.773 10 0 59709 40500.00000 0 -8635458.866 13658830.047 19796397.053 10 0 59709 41400.00000 0 -8791052.371 11141242.969 21250898.086 10 0 59709 42300.00000 0 -9154136.418 8490192.221 22294907.061 10 0 59709 43200.00000 0 -9732327.929 5773304.293 22908206.919 10 0 59709 44100.00000 0 -10521017.649 3059393.098 23078848.181 10 0 59709 45000.00000 0 -11503449.621 415841.006 22803383.068 10 0 59709 45900.00000 0 -12651321.880 -2093956.032 22086942.347 10 0 59709 46800.00000 0 -13925885.211 -4412975.810 20943152.767 10 0 59709 47700.00000 0 -15279496.544 -6492692.481 19393895.295 10 0 59709 48600.00000 0 -16657564.715 -8294847.638 17468907.038 10 0 59709 49500.00000 0 -18000809.838 -9792796.865 15205232.236 10 0 59709 50400.00000 0 -19247743.949 -10972375.456 12646530.634 10 0 59709 51300.00000 0 -20337270.592 -11832246.513 9842254.239 10 0 59709 52200.00000 0 -21211295.050 -12383715.768 6846706.310 10 0 59709 53100.00000 0 -21817235.432 -12650019.498 3717999.294 10 0 59709 54000.00000 0 -22110327.892 -12665114.288 516930.882 10 0 59709 54900.00000 0 -22055627.028 -12472018.654 -2694200.314 10 0 59709 55800.00000 0 -21629614.591 -12120776.027 -5852815.934 10 0 59709 56700.00000 0 -20821345.787 -11666125.423 -8897291.169 10 0 59709 57600.00000 0 -19633081.812 -11164979.195 -11768174.578 10 0 59709 58500.00000 0 -18080379.206 -10673816.144 -14409368.678 10 0 59709 59400.00000 0 -16191629.955 -10246102.434 -16769246.228 10 0 59709 60300.00000 0 -14007070.016 -9929851.831 -18801678.390 10 0 59709 61200.00000 0 -11577297.090 -9765430.945 -20466952.791 10 0 59709 62100.00000 0 -8961359.704 -9783704.580 -21732562.127 10 0 59709 63000.00000 0 -6224498.118 -10004601.457 -22573846.845 10 0 59709 63900.00000 0 -3435632.706 -10436162.194 -22974478.792 10 0 59709 64800.00000 0 -664705.892 -11074110.412 -22926776.319 10 0 59709 65700.00000 0 2020010.164 -11901965.032 -22431845.108 10 0 59709 66600.00000 0 4554526.833 -12891688.400 -21499542.716 10 0 59709 67500.00000 0 6881563.882 -14004841.794 -20148268.656 10 0 59709 68400.00000 0 8952685.040 -15194198.130 -18404585.400 10 0 59709 69300.00000 0 10730056.126 -16405742.301 -16302679.186 10 0 59709 70200.00000 0 12187754.111 -17580973.264 -13883672.676 10 0 59709 71100.00000 0 13312574.894 -18659409.550 -11194804.339 10 0 59709 72000.00000 0 14104308.914 -19581191.622 -8288492.024 10 0 59709 72900.00000 0 14575476.402 -20289670.936 -5221300.217 10 0 59709 73800.00000 0 14750536.806 -20733876.703 -2052832.039 10 0 59709 74700.00000 0 14664608.738 -20870756.982 1155431.616 10 0 59709 75600.00000 0 14361757.103 -20667100.813 4341322.943 10 0 59709 76500.00000 0 13892921.597 -20101061.852 7443185.052 10 0 59709 77400.00000 0 13313575.150 -19163220.962 10401053.884 10 0 59709 78300.00000 0 12681211.441 -17857144.611 13157802.339 10 0 59709 79200.00000 0 12052766.976 -16199416.772 15660225.770 10 0 59709 80100.00000 0 11482085.225 -14219143.753 17860049.471 10 0 59709 81000.00000 0 11017528.009 -11956952.708 19714840.591 10 0 59709 81900.00000 0 10699832.753 -9463524.922 21188808.847 10 0 59709 82800.00000 0 10560303.869 -6797723.694 22253482.399 10 0 59709 83700.00000 0 10619412.699 -4024392.596 22888247.475 10 0 59709 84600.00000 0 10885863.804 -1211912.972 23080742.552 10 0 59709 85500.00000 0 11356166.496 1570380.716 22827100.075 10 0 59710 0.00000 0 12014730.052 4254823.298 22132031.178 10 0 59710 900.00000 0 12834480.327 6777974.455 21008750.630 10 0 59710 1800.00000 0 13777972.968 9083000.128 19478743.194 10 0 59710 2700.00000 0 14798960.158 11121787.443 17571372.845 10 0 59710 3600.00000 0 15844346.898 12856702.628 15323340.997 10 0 59710 4500.00000 0 16856457.447 14261920.333 12778001.586 10 0 59710 5400.00000 0 17775518.620 15324268.265 9984543.932 10 0 59710 6300.00000 0 18542256.774 16043550.783 6997057.108 10 0 59710 7200.00000 0 19100499.518 16432336.538 3873492.374 10 0 59710 8100.00000 0 19399671.931 16515217.662 674542.775 10 0 59710 9000.00000 0 19397080.560 16327570.432 -2537538.734 10 0 59710 9900.00000 0 19059886.508 15913868.769 -5700159.178 10 0 59710 10800.00000 0 18366681.543 15325621.527 -8751618.803 10 0 59710 11700.00000 0 17308597.588 14619021.108 -11632332.106 10 0 59710 12600.00000 0 15889899.756 13852403.922 -14286010.894 10 0 59710 13500.00000 0 14128035.145 13083631.770 -16660784.263 10 0 59710 14400.00000 0 12053133.140 12367506.964 -18710231.601 10 0 59710 15300.00000 0 9706976.741 11753332.754 -20394306.544 10 0 59710 16200.00000 0 7141487.359 11282724.376 -21680132.354 10 0 59710 17100.00000 0 4416786.543 10987765.056 -22542652.126 10 0 59710 18000.00000 0 1598916.407 10889586.217 -22965120.512 10 0 59710 18900.00000 0 -1242684.999 10997432.541 -22939427.274 10 0 59710 19800.00000 0 -4037846.851 11308251.354 -22466246.742 10 0 59710 20700.00000 0 -6718355.014 11806823.008 -21555010.994 10 0 59710 21600.00000 0 -9220554.988 12466425.548 -20223708.397 10 0 59710 22500.00000 0 -11487759.642 13250003.977 -18498512.718 10 0 59710 23400.00000 0 -13472361.754 14111792.915 -16413251.552 10 0 59710 24300.00000 0 -15137564.447 14999322.291 -14008725.926 10 0 59710 25200.00000 0 -16458659.232 15855719.671 -11331895.832 10 0 59710 26100.00000 0 -17423800.687 16622210.649 -8434949.051 10 0 59710 27000.00000 0 -18034248.439 17240710.808 -5374272.627 10 0 59710 27900.00000 0 -18304069.511 17656399.457 -2209348.030 10 0 59710 28800.00000 0 -18259316.748 17820166.682 998407.699 10 0 59710 29700.00000 0 -17936720.782 17690831.190 4186831.913 10 0 59710 30600.00000 0 -17381952.979 17237036.514 7294214.429 10 0 59710 31500.00000 0 -16647534.138 16438747.083 10260480.799 10 0 59710 32400.00000 0 -15790477.878 15288282.597 13028338.804 10 0 59710 33300.00000 0 -14869767.911 13790848.434 15544367.333 10 0 59710 34200.00000 0 -13943774.576 11964540.733 17760028.122 10 0 59710 35100.00000 0 -13067717.868 9839826.147 19632582.745 10 0 59710 36000.00000 0 -12291281.679 7458517.561 21125899.114 10 0 59710 36900.00000 0 -11656477.440 4872287.377 22211133.742 10 0 59710 37800.00000 0 -11195844.832 2140778.345 22867278.274 10 0 59710 38700.00000 0 -10931063.479 -670612.031 23081560.947 10 0 59710 39600.00000 0 -10872032.818 -3493184.305 22849695.891 10 0 59710 40500.00000 0 -11016458.489 -6257528.473 22175975.496 10 0 59710 41400.00000 0 -11349963.081 -8896149.410 21073203.422 10 0 59710 42300.00000 0 -11846717.916 -11346020.008 19562468.286 10 0 59710 43200.00000 0 -12470571.198 -13550958.137 17672760.599 10 0 59710 44100.00000 0 -13176627.431 -15463730.022 15440438.127 10 0 59710 45000.00000 0 -13913214.023 -17047792.962 12908547.700 10 0 59710 45900.00000 0 -14624154.429 -18278604.600 10126014.206 10 0 59710 46800.00000 0 -15251253.645 -19144443.136 7146710.372 10 0 59710 47700.00000 0 -15736892.091 -19646702.788 4028423.748 10 0 59710 48600.00000 0 -16026618.313 -19799650.521 831739.884 10 0 59710 49500.00000 0 -16071629.991 -19629652.756 -2381137.060 10 0 59710 50400.00000 0 -15831036.557 -19173903.314 -5547602.885 10 0 59710 51300.00000 0 -15273805.199 -18478705.510 -8605886.483 10 0 59710 52200.00000 0 -14380305.015 -17597380.798 -11496272.032 10 0 59710 53100.00000 0 -13143380.934 -16587892.853 -14162284.424 10 0 59710 54000.00000 0 -11568909.029 -15510288.735 -16551812.831 10 0 59710 54900.00000 0 -9675807.167 -14424066.935 -18618148.434 10 0 59710 55800.00000 0 -7495498.537 -13385585.555 -20320914.108 10 0 59710 56700.00000 0 -5070849.279 -12445622.087 -21626866.458 10 0 59710 57600.00000 0 -2454624.165 -11647189.687 -22510553.443 10 0 59710 58500.00000 0 292474.771 -11023703.481 -22954814.090 10 0 59710 59400.00000 0 3104104.032 -10597575.053 -22951110.486 10 0 59710 60300.00000 0 5910812.018 -10379294.493 -22499685.878 10 0 59710 61200.00000 0 8642703.045 -10367038.087 -21609546.526 10 0 59710 62100.00000 0 11232120.062 -10546816.936 -20298268.759 10 0 59710 63000.00000 0 13616233.642 -10893158.421 -18591636.251 10 0 59710 63900.00000 0 15739429.190 -11370289.665 -16523116.088 10 0 59710 64800.00000 0 17555393.495 -11933770.760 -14133185.349 10 0 59710 65700.00000 0 19028814.870 -12532506.632 -11468522.826 10 0 59710 66600.00000 0 20136627.793 -13111050.657 -8581083.121 10 0 59710 67500.00000 0 20868752.613 -13612101.237 -5527072.409 10 0 59710 68400.00000 0 21228302.281 -13979084.938 -2365846.842 10 0 59710 69300.00000 0 21231250.482 -14158716.720 841244.156 10 0 59710 70200.00000 0 20905578.118 -14103429.417 4032046.858 10 0 59710 71100.00000 0 20289936.574 -13773570.634 7144801.395 10 0 59710 72000.00000 0 19431885.946 -13139275.589 10119326.254 10 0 59710 72900.00000 0 18385783.583 -12181938.260 12898167.066 10 0 59710 73800.00000 0 17210412.077 -10895220.174 15427688.774 10 0 59710 74700.00000 0 15966445.978 -9285555.479 17659091.606 10 0 59710 75600.00000 0 14713862.441 -7372131.548 19549333.129 10 0 59710 76500.00000 0 13509402.691 -5186345.768 21061940.543 10 0 59710 77400.00000 0 12404188.689 -2770760.327 22167699.372 10 0 59710 78300.00000 0 11441592.644 -177596.907 22845206.917 10 0 59710 79200.00000 0 10655446.587 2533168.389 23081281.050 10 0 59710 80100.00000 0 10068665.396 5296033.447 22871217.111 10 0 59710 81000.00000 0 9692339.942 8042432.455 22218888.052 10 0 59710 81900.00000 0 9525338.115 10703333.107 21136685.259 10 0 59710 82800.00000 0 9554430.981 13211863.659 19645299.989 10 0 59710 83700.00000 0 9754940.008 15505863.194 17773347.834 10 0 59710 84600.00000 0 10091879.912 17530250.831 15556841.297 10 0 59710 85500.00000 0 10521551.132 19239116.087 13038518.334 99